Tracking 28794 objects as of 19-Apr-2024
HD Live streaming from Space Station
objects crossing your sky now

COSMOS 1275 DEB

Track COSMOS 1275 DEB now!
10-day predictions


NORAD ID: 39965
Int'l Code: 1981-053PH
Perigee: 927.6 km
Apogee: 995.7 km
Inclination: 83.0 °
Period: 104.1 minutes
Semi major axis: 7332 km
RCS: 0.0025 m2 (small)
Launch date: April 25, 1981
Source: Commonwealth of Independent States (former USSR) (CIS)
Launch site: PLESETSK MISSILE AND SPACE COMPLEX (PKMTR)

Note: This is SATELLITE DEBRIS
Your satellite tracking list
Your tracking list is empty




NASA's NSSDC Master Catalog

Two Line Element Set (TLE):
1 39965U 81053PB  24110.49123052  .00001710  00000-0  15482-2 0  9994
2 39965  82.9638 123.6461 0046477  58.2063  93.6583 13.82648468497548
Source of the keplerian elements: AFSPC